Location: Vale
(43.9820°N, 117.2370°W)
Time: 21:46:10
(UTC-06:00)

OTV 5 (USA 277) - Visible Passes

Search period start: 21 June 2018 00:00
Search period end: 01 July 2018 00:00
Orbit: 313 x 320 km, 54.5° (Epoch: 21 June)

Date Brightness Start Highest point End Pass type
(mag) Time Alt. Az. Time Alt. Az. Time Alt. Az.
21 Jun ? 02:07:26 10° NNW 02:09:25 18° NNE 02:11:09 11° ENE visible
21 Jun ? 03:41:16 10° WNW 03:41:54 15° WNW 03:41:54 15° WNW visible
21 Jun ? 23:12:55 10° NNW 23:13:45 11° N 23:14:35 10° N visible
22 Jun ? 00:48:19 10° N 00:49:03 11° N 00:49:47 10° NNE visible
22 Jun ? 02:21:33 10° NW 02:23:26 28° N 02:23:26 28° N visible
23 Jun ? 01:02:12 10° NNW 01:03:49 14° NNE 01:05:26 10° NE visible
23 Jun ? 02:35:49 10° NW 02:36:16 14° NW 02:36:16 14° NW visible
24 Jun ? 01:16:15 10° NNW 01:18:30 23° NNE 01:18:31 23° NNE visible
24 Jun ? 23:57:00 10° NNW 23:58:12 12° NNE 23:59:24 10° NE visible
25 Jun ? 01:30:26 10° NW 01:31:45 24° NNW 01:31:45 24° NNW visible
26 Jun ? 00:10:59 10° NNW 00:12:56 18° NNE 00:14:14 13° ENE visible
26 Jun ? 01:44:48 10° WNW 01:45:04 12° WNW 01:45:04 12° WNW visible
26 Jun ? 22:51:53 10° N 22:52:35 11° N 22:53:16 10° NNE visible
27 Jun ? 00:25:06 10° NW 00:27:33 30° NNE 00:27:38 30° NNE visible
27 Jun ? 23:05:46 10° NNW 23:07:20 14° NNE 23:08:56 10° NE visible
28 Jun ? 00:39:21 10° NW 00:41:05 35° NW 00:41:05 35° NW visible
28 Jun ? 23:19:48 10° NNW 23:22:02 22° NNE 23:23:45 13° ENE visible
29 Jun ? 00:53:53 10° WNW 00:54:36 16° WNW 00:54:36 16° WNW visible
29 Jun ? 23:33:59 10° NW 23:36:35 45° NNE 23:37:18 34° ENE visible
30 Jun ? 22:14:32 10° NNW 22:16:28 17° NNE 22:18:23 10° ENE visible
30 Jun ? 23:48:21 10° WNW 23:50:54 64° WSW 23:50:54 64° WSW visible
